Petersburg, WV

4:29 PM EDT on April 26, 2018 (GMT -0400)
Petersburg

Weather History for KW99 - December, 2012

Change the Weather History Date:

Friday, December 7, 2012

  Actual Average (KEKN) Record (KEKN)
Temperature  
Mean Temperature 40 °F -  
Max Temperature 45 °F 42 °F 76 °F (1951)
Min Temperature 35 °F 23 °F -4 °F (2008)
Degree Days  
Heating Degree Days 26    
Moisture  
Dew Point 34 °F    
Average Humidity 78    
Maximum Humidity 88    
Minimum Humidity 69    
Precipitation  
Precipitation 0.02 in - - ()
Sea Level Pressure  
Sea Level Pressure 30.06 in    
Wind  
Wind Speed 0 mph (North)    
Max Wind Speed 0 mph    
Max Gust Speed -    
Visibility 10 miles    
Events Rain    
Averages and records for this station are not official NWS values.
T = Trace of Precipitation, MM = Missing Value Source: NWS Daily Summary

Daily Weather History Graph

Daily Weather History Graph

Search for Another Location

Airport or City:

Astronomy

Dec. 07, 2012 Rise Set
Actual Time 7:22 AM EST 4:54 PM EST
Civil Twilight 6:52 AM EST 5:23 PM EST
Nautical Twilight 6:19 AM EST 5:57 PM EST
Astronomical Twilight 5:46 AM EST 6:29 PM EST
Moon 12:42 AM EST (12/7) 12:47 PM EST (12/7)
Length of Visible Light 10h 31m
Length of Day
9h 31m
Last Quarter, 39% of the Moon is Illuminated
Dec 7
Last Quarter
Dec 13
New
Dec 20
First Quarter
Dec 28
Full
Jan 4
Last Quarter

Hourly Weather History & Observations

Time (EST) Temp. Dew Point Humidity Pressure Visibility Wind Dir Wind Speed Gust Speed Precip Events Conditions
12:15 AM 35.8 °F 31.6 °F 85% 30.16 in 10.0 mi Calm Calm - N/A   Overcast
12:35 AM 36.5 °F 31.6 °F 83% 30.15 in 10.0 mi Calm Calm - N/A   Overcast
12:55 AM 36.7 °F 31.8 °F 83% 30.14 in 10.0 mi Calm Calm - N/A   Overcast
1:15 AM 36.7 °F 31.6 °F 82% 30.14 in 10.0 mi Calm Calm - N/A   Overcast
1:35 AM 37.0 °F 32.0 °F 82% 30.14 in 7.0 mi Calm Calm - N/A   Overcast
1:55 AM 37.0 °F 32.0 °F 82% 30.14 in 10.0 mi Calm Calm - N/A   Overcast
2:15 AM 36.9 °F 31.8 °F 82% 30.13 in 10.0 mi Calm Calm - N/A   Overcast
2:35 AM 37.0 °F 31.1 °F 79% 30.13 in 10.0 mi Calm Calm - N/A   Overcast
2:55 AM 36.9 °F 30.7 °F 79% 30.13 in 10.0 mi Calm Calm - N/A   Overcast
3:15 AM 36.9 °F 30.6 °F 78% 30.12 in 10.0 mi Calm Calm - N/A Rain Light Rain
3:35 AM 37.0 °F 30.4 °F 77% 30.12 in 10.0 mi Calm Calm - N/A   Overcast
3:55 AM 37.0 °F 29.3 °F 74% 30.12 in 10.0 mi Calm Calm - N/A Rain Light Rain
4:15 AM 37.0 °F 28.9 °F 73% 30.11 in 10.0 mi Calm Calm - N/A Rain Light Rain
4:35 AM 37.0 °F 30.0 °F 76% 30.11 in 10.0 mi Calm Calm - N/A Rain Light Rain
4:55 AM 36.3 °F 30.0 °F 78% 30.11 in 5.0 mi Calm Calm - 0.01 in Rain Light Rain
5:15 AM 36.0 °F 31.5 °F 84% 30.11 in 7.0 mi Calm Calm - 0.01 in Rain Light Rain
5:35 AM 36.3 °F 31.3 °F 82% 30.11 in 10.0 mi Calm Calm - 0.01 in   Overcast
5:55 AM 37.4 °F 32.7 °F 83% 30.10 in 10.0 mi Calm Calm - 0.01 in   Overcast
6:15 AM 37.2 °F 31.8 °F 81% 30.10 in 10.0 mi Calm Calm - N/A   Overcast
6:35 AM 37.6 °F 32.0 °F 80% 30.11 in 10.0 mi Calm Calm - N/A   Overcast
6:55 AM 37.8 °F 32.0 °F 80% 30.11 in 10.0 mi Calm Calm - N/A   Overcast
7:15 AM 37.8 °F 32.5 °F 81% 30.11 in 10.0 mi Calm Calm - N/A   Overcast
7:35 AM 37.8 °F 32.7 °F 82% 30.11 in 10.0 mi Calm Calm - N/A   Overcast
7:55 AM 37.9 °F 33.8 °F 85% 30.10 in 10.0 mi Calm Calm - N/A   Overcast
8:15 AM 37.9 °F 33.4 °F 84% 30.10 in 10.0 mi Calm Calm - N/A   Overcast
8:35 AM 38.7 °F 34.2 °F 84% 30.11 in 10.0 mi Calm Calm - N/A   Mostly Cloudy
8:55 AM 38.8 °F 34.3 °F 84% 30.11 in 10.0 mi Calm Calm - N/A   Scattered Clouds
9:15 AM 39.4 °F 34.0 °F 81% 30.11 in 10.0 mi Calm Calm - N/A   Mostly Cloudy
9:35 AM 39.4 °F 33.3 °F 79% 30.12 in 10.0 mi Calm Calm - N/A   Overcast
9:55 AM 40.1 °F 32.9 °F 75% 30.12 in 10.0 mi Calm Calm - N/A   Overcast
10:15 AM 40.1 °F 33.4 °F 77% 30.12 in 10.0 mi Calm Calm - N/A   Mostly Cloudy
10:35 AM 40.3 °F 33.3 °F 76% 30.11 in 10.0 mi Calm Calm - N/A   Mostly Cloudy
10:55 AM 40.6 °F 33.3 °F 75% 30.10 in 10.0 mi Calm Calm - N/A   Overcast
11:15 AM 41.0 °F 32.9 °F 73% 30.09 in 10.0 mi Calm Calm - N/A   Overcast
11:35 AM 42.1 °F 34.0 °F 73% 30.07 in 10.0 mi Calm Calm - N/A   Overcast
11:55 AM 42.4 °F 33.3 °F 70% 30.06 in 10.0 mi Calm Calm - N/A   Overcast
12:15 PM 43.0 °F 34.2 °F 71% 30.05 in 10.0 mi Calm Calm - N/A   Overcast
12:35 PM 43.2 °F 34.0 °F 70% 30.05 in 10.0 mi Calm Calm - N/A   Overcast
12:55 PM 43.9 °F 34.7 °F 70% 30.04 in 10.0 mi Calm Calm - N/A   Overcast
1:15 PM 43.9 °F 34.9 °F 71% 30.04 in 10.0 mi Calm Calm - N/A   Overcast
1:35 PM 44.2 °F 35.1 °F 70% 30.03 in 10.0 mi Calm Calm - N/A   Overcast
1:55 PM 44.6 °F 35.4 °F 70% 30.02 in 10.0 mi Calm Calm - N/A   Overcast
2:15 PM 44.4 °F 35.8 °F 72% 30.02 in 10.0 mi Calm Calm - N/A Rain Light Rain
2:35 PM 44.8 °F 36.0 °F 71% 30.02 in 10.0 mi Calm Calm - N/A   Overcast
2:55 PM 44.8 °F 35.8 °F 71% 30.02 in 10.0 mi Calm Calm - N/A   Overcast
3:15 PM 44.6 °F 35.8 °F 71% 30.02 in 10.0 mi Calm Calm - N/A   Mostly Cloudy
3:35 PM 44.8 °F 35.2 °F 69% 30.02 in 10.0 mi Calm Calm - N/A   Scattered Clouds
3:55 PM 44.6 °F 35.2 °F 70% 30.02 in 10.0 mi Calm Calm - N/A   Mostly Cloudy
4:15 PM 44.2 °F 35.6 °F 72% 30.01 in 10.0 mi Calm Calm - N/A   Mostly Cloudy
4:35 PM 43.9 °F 37.0 °F 77% 30.01 in 10.0 mi Calm Calm - N/A   Scattered Clouds
4:55 PM 43.3 °F 37.2 °F 79% 30.01 in 10.0 mi Calm Calm - N/A   Clear
5:15 PM 43.2 °F 37.0 °F 79% 30.01 in 10.0 mi Calm Calm - N/A   Clear
5:35 PM 43.3 °F 36.3 °F 76% 30.01 in 10.0 mi Calm Calm - N/A   Clear
5:55 PM 43.5 °F 35.6 °F 74% 30.01 in 10.0 mi Calm Calm - N/A   Clear
6:15 PM 43.5 °F 35.8 °F 74% 30.01 in 10.0 mi Calm Calm - N/A   Clear
6:35 PM 42.6 °F 35.6 °F 76% 30.02 in 10.0 mi Calm Calm - N/A   Clear
6:55 PM 42.1 °F 35.6 °F 78% 30.02 in 10.0 mi Calm Calm - N/A   Scattered Clouds
7:15 PM 41.7 °F 35.4 °F 78% 30.02 in 10.0 mi Calm Calm - N/A   Scattered Clouds
7:35 PM 41.4 °F 35.6 °F 80% 30.02 in 10.0 mi Calm Calm - N/A   Clear
7:55 PM 40.8 °F 35.1 °F 80% 30.01 in 10.0 mi Calm Calm - N/A   Scattered Clouds
8:15 PM 40.6 °F 34.7 °F 79% 30.01 in 10.0 mi Calm Calm - N/A   Clear
8:35 PM 40.1 °F 34.3 °F 80% 30.00 in 10.0 mi Calm Calm - N/A   Clear
8:55 PM 39.7 °F 34.5 °F 82% 30.00 in 10.0 mi Calm Calm - N/A   Scattered Clouds
9:15 PM 39.7 °F 34.7 °F 82% 30.00 in 10.0 mi Calm Calm - N/A   Clear
9:35 PM 40.1 °F 34.7 °F 81% 30.00 in 10.0 mi Calm Calm - N/A   Scattered Clouds
9:55 PM 39.9 °F 35.1 °F 83% 29.99 in 10.0 mi Calm Calm - N/A   Overcast
10:15 PM 39.9 °F 35.8 °F 85% 29.99 in 10.0 mi Calm Calm - N/A   Overcast
10:35 PM 39.9 °F 35.8 °F 85% 29.99 in 10.0 mi Calm Calm - N/A   Mostly Cloudy
10:55 PM 39.7 °F 35.8 °F 86% 29.99 in 7.0 mi Calm Calm - N/A   Overcast
11:15 PM 39.9 °F 36.1 °F 86% 29.98 in 7.0 mi Calm Calm - N/A   Mostly Cloudy
11:35 PM 39.4 °F 36.0 °F 88% 29.97 in 7.0 mi Calm Calm - N/A   Scattered Clouds
11:55 PM 39.2 °F 36.0 °F 88% 29.97 in 7.0 mi Calm Calm - N/A   Clear